CZ-6A DEB

Satellite information

Favourite Embed

Satellite Type and Status

DEBRISIN ORBIT

Key statistics

Satellite CZ-6A DEB at a glance.

Uptime

1129

Days in orbit

Revolutions

≈ 14.5

Per day

Orbit

SSO

Sun Synchronous Orbit

Inclination

98.6

Latest

Satellite identification and parameters

Extended collection of information and parameters for CZ-6A DEB.

Object identification

Identified? True

Debris? True

Object name: CZ-6A DEB

International designator: 2022-151TB

Object number (NORAD): 54962

Object ID (CCSDS): 54962

Country: PEOPLES REPUBLIC OF CHINA (PRC)

Current information (Y/N): Y

RCS size: SMALL

Orbital parameters

Period: 99.057 minutes

Inclination: 98.6132 deg

SMA: 7091.721 km

Apoapsis: 805.581 km

Periapsis: 621.59 km

RAAN: 40.217 deg

Eccentricy: 0.01297222

Argument of periapsis: 110.1058 deg

Mean anomaly: 251.4151 deg

Mean motion: 14.53701831 rev/day

Mean motion (dot): 0.00003256 rev/day2

B* drag term: 0.00070650682 1/REarth

Two-line elements (TLE)

Creation date: Dec. 12, 2025, 10:14 a.m.

Reference frame: TEME

Reference center: EARTH

Epoch: Dec. 12, 2025, 2:35 a.m. UTC

TLE line 0: 0 CZ-6A DEB

TLE line 1: 1 54962U 22151TB 25346.10821168 .00003256 00000-0 70651-3 0 9992

TLE line 2: 2 54962 98.6132 40.2170 0129722 110.1058 251.4151 14.53701831162955

Live tracking on map

Real-time ground track for satellite CZ-6A DEB.

In-orbit conjunctions

A list of the most updated potential collisions computed for object CZ-6A DEB.

Target Orbit TCA Probability of collision Miss distance Type
CZ-4B R/B SSO 2025-06-18 05:43:12 0.0009187942 182.0 (m) ROCKET BODY
COSMOS 1992 LEO 2024-11-29 02:33:44 0.0001214428 889.0 (m) PAYLOAD

Associated space launch

Chinese satellite reported for atmospheric/ocean/environmental/spatial parameter research purposes, details TBD.

CZ-6A DEB was lifted into orbit during the mission ‘Long March 6A | Yunhai 3’, on board a Long March 6A space rocket.

The launch took place on Nov. 11, 2022, 10:52 p.m. from Launch Complex 9A.

For more information about the launch, click the button.

Launch to space Long March 6A | Yunhai 3
Long March 6A | Yunhai 3

Agency: N/A

Status: Launch Successful

Launch date: Nov. 11, 2022, 10:52 p.m. UTC

Rocket: Long March 6A

Launch pad: Launch Complex 9A

Location: Taiyuan Satellite Launch Center, People's Republic of China

...

Latest news about this satellite

There are no fresh news available about this satellite. Check back as we update our databases every day.


Newsletter sign-up

Weekly statistics, charts and insights to help you stay on top of the space industry.